Regional Weather Roundup
Issued by NWS Jackson, KY

Home | Current Version | Previous Version | Text Only | Print | Product List | Glossary Off
Versions: 1 2 3 4 5 6 7 8 9 10 11 12 13 14 15 16 17 18 19 20 21 22 23 24 25 26 27

000
ASUS43 KJKL 021210
RWRJKL

EAST KENTUCKY HOURLY WEATHER ROUNDUP
NATIONAL WEATHER SERVICE JACKSON KY
800 AM EDT MON MAY 02 2016

NOTE: "FAIR" INDICATES FEW OR NO CLOUDS BELOW 12,000 FEET WITH
NO SIGNIFICANT WEATHER AND/OR OBSTRUCTIONS TO VISIBILITY.

* THESE REPORTS ARE NOT UNDER NWS QUALITY CONTROL AND MAY NOT
  REPORT WEATHER SUCH AS PRECIPITATION AND FOG.

KYZ079-080-083-085-087-088-110-112-115-119-120-021300
...EASTERN KENTUCKY...

CITY           SKY/WX    TMP DP  RH WIND       PRES   REMARKS
JACKSON        CLOUDY    67  62  84 CALM      30.01R
6HR MIN TEMP:  62; 6HR MAX TEMP:  66; 6HR PCP: TRACE;

LONDON         CLOUDY    65  61  87 SW3       30.00S
6HR MIN TEMP:  64; 6HR MAX TEMP:  68;

SOMERSET*      CLOUDY    64  64 100 CALM      30.02R
MONTICELLO*    CLOUDY    66  63  90 W12       30.03R
6HR MIN TEMP:  65; 6HR MAX TEMP:  68; 6HR PCP: TRACE;

WILLIAMSBURG*  PTSUNNY   59  59 100 SW5       30.02S
MIDDLESBORO*   CLOUDY    63  63 100 CALM      30.03R
6HR MIN TEMP:  59; 6HR MAX TEMP:  63;

HARLAN APT*    CLOUDY    59  59 100 CALM      30.04R VSB<1/4
HAZARD APT*    CLOUDY    66  66 100 SW6       30.00R
BLACK MTN*       N/A     57  57 100 S5          N/A
BIG SANDY APT* CLOUDY    65  63  92 SW3       30.00R
6HR MIN TEMP:  62; 6HR MAX TEMP:  65;

MOREHEAD APT*  SUNNY     63  61  94 W3        30.00R
$$

KYZ035-036-041-042-044-050-067-078-099-021300
...CENTRAL KENTUCKY...

CITY           SKY/WX    TMP DP  RH WIND       PRES   REMARKS
MT STERLING*   SUNNY     61  61 100 W5        30.01R
FLEMING/MASON* PTSUNNY  N/A N/A N/A W8        29.98S
DANVILLE*      CLOUDY    61  59  94 NW3       30.01S
RICHMOND*      CLOUDY    63  59  88 CALM      29.99R
LEXINGTON      SUNNY     61  57  87 CALM      29.99R
6HR MIN TEMP:  58; 6HR MAX TEMP:  65;

FRANKFORT      SUNNY     60  55  83 W3        29.98R
6HR MIN TEMP:  58; 6HR MAX TEMP:  65;

LOUISVILLE     PTSUNNY   61  56  83 W7        29.99R
6HR MIN TEMP:  59; 6HR MAX TEMP:  68;

LEBANON*         N/A     63  59  88 SW3       30.00S
BOWLING GREEN  CLOUDY    61  52  72 NW5       30.01R
6HR MIN TEMP:  61; 6HR MAX TEMP:  69;

$$

KYZ091>093-OHZ055-061-077-WVZ005-015-034-035-042-021300
...SOUTHERN OHIO/WEST VIRGINIA...

CITY           SKY/WX    TMP DP  RH WIND       PRES   REMARKS
COVINGTON      CLOUDY    59  57  94 W8        29.96R
COLUMBUS       CLOUDY    54  54 100 CALM      29.91R
DAYTON         CLOUDY    53  52  96 NW5       29.96R FOG
WILMINGTON     CLOUDY    59  57  93 SW8       29.93R
HUNTINGTON       N/A     64  61  90 S7        29.96R
CHARLESTON     PTSUNNY   65  61  87 SW5       29.97R
PINEVILLE*     CLOUDY    60  57  91 MISG      30.08R
BECKLEY          N/A     62  59  90 SW8       30.03S
$$

VAZ002-007-008-TNZ017-027-036-066-071-021300
...SOUTHWEST VIRGINIA/EAST TENNESSEE...

CITY           SKY/WX    TMP DP  RH WIND       PRES   REMARKS
WISE*          CLOUDY    63  63 100 SW3       30.08R
BRISTOL        MOSUNNY   66  61  84 SW3       30.05R
MORRISTOWN*    PTSUNNY   66  63  88 VRB3      30.03S
SEVIERVILLE*   CLOUDY    61  59  94 CALM      30.03R
KNOXVILLE      PTSUNNY   65  62  90 W3        30.02R
OAK RIDGE      CLOUDY    67  63  87 CALM      30.04R
CROSSVILLE     CLOUDY    64  58  80 CALM      30.05R
NASHVILLE      CLOUDY    63  53  70 N7        30.01R
$$

...KEY TO REMARKS...
VSB - VISIBILITY IN MILES
WCI - WIND CHILL INDEX
HX  - HEAT INDEX

$$




USA.gov is the U.S. government's official web portal to all federal, state and local government web resources and services.